Regional Weather Roundup
Issued by NWS

Home | Current Version | Previous Version | Graphics & Text | Print | Product List | Glossary Off
Versions: 1 2 3 4 5 6 7 8 9 10 11 12 13 14 15 16 17 18 19 20 21 22 23 24 25 26 27 28 29 30 31 32 33 34 35 36 37 38 39 40 41 42 43 44 45 46 47 48 49 50

000
ASUS43 KDMX 261808
RWRIA

WEATHER ROUNDUP FOR IOWA
NATIONAL WEATHER SERVICE DES MOINES IA
100 PM CDT THU MAY 26 2016

NOTE: "FAIR" INDICATES FEW OR NO CLOUDS BELOW 12,000 FEET WITH NO
SIGNIFICANT WEATHER AND/OR OBSTRUCTIONS TO VISIBILITY.

* - THESE STATIONS ARE NOT NWS STATIONS...THUS NOT UNDER NWS
QUALITY CONTROL.  THEY ALSO DO NOT REPORT WEATHER SUCH
AS PRECIPITATION OR FOG.

IAZ001>003-012>014-020>022-031>034-043>046-261900-
   NORTHWEST IOWA

CITY           SKY/WX    TMP DP  RH WIND       PRES   REMARKS
CARROLL *      SUNNY     77  59  53 SE3       29.89R
CHEROKEE *     SUNNY     73  61  64 CALM      29.89S
DENISON *      SUNNY     77  59  53 VRB3      29.86F
LE MARS *      SUNNY     73  59  60 CALM      29.89S
ORANGE CITY *  SUNNY     73  52  46 CALM      29.89S
SHELDON *      SUNNY     72  54  53 CALM      29.87S
SIOUX CITY     SUNNY     77  60  55 E6        29.87F
6HR MIN TEMP:  58; 6HR MAX TEMP:  77;

SPENCER        SUNNY     74  53  48 CALM      29.89S
6HR MIN TEMP:  59; 6HR MAX TEMP:  74;

STORM LAKE *     N/A     73  61  64 SW7       29.91S
$$

IAZ055>058-069>071-079>083-090>094-261900-
   SOUTHWEST IOWA

CITY           SKY/WX    TMP DP  RH WIND       PRES   REMARKS
ATLANTIC *     MOSUNNY   79  63  57 E6        29.86F HX  80
AUDUBON *      SUNNY     79  59  50 NE5       29.89F HX  80
CLARINDA *       N/A     82  70  65 MISG      29.86S HX  86
COUNCIL BLFS * SUNNY     81  59  47 E9        29.84F HX  81
CRESTON *      SUNNY     81  66  61 S10G16    29.88F HX  83
HARLAN  *      MOSUNNY   79  57  47 VRB7      29.89F HX  80
LAMONI         CLOUDY    74  66  76 VRB3      29.87F
6HR MIN TEMP:  61; 6HR MAX TEMP:  76;

RED OAK *      SUNNY     81  68  65 SE8       29.85S HX  83
SHENANDOAH *   MOSUNNY   82  70  65 SE14G22   29.84S HX  86
$$

IAZ047>049-059>061-072>074-084-261900-
   CENTRAL IOWA

CITY           SKY/WX    TMP DP  RH WIND       PRES   REMARKS
AMES           SUNNY     77  64  64 VRB3      29.88S
6HR MIN TEMP:  57; 6HR MAX TEMP:  78;

ANKENY *       SUNNY     77  64  65 VRB3      29.87F
BOONE *        SUNNY     77  61  57 VRB5      29.88F
CHARITON *     SUNNY     75  66  73 SE7       29.89F
DES MOINES     CLOUDY    79  64  60 S6        29.88F HX  81
6HR MIN TEMP:  62; 6HR MAX TEMP:  79;

GRINNELL*      CLOUDY    75  63  64 S7        29.90F
KNOXVILLE *    SUNNY     75  66  73 VRB7G13   29.88F
NEWTON *       CLOUDY    75  66  73 S6G13     29.89F
PELLA *        CLOUDY    75  63  64 SE7       29.90F
PERRY *          N/A     78  66  67 CALM      29.88F
$$

IAZ004>006-015-016-023>025-035-036-261900-
   NORTH CENTRAL IOWA

CITY           SKY/WX    TMP DP  RH WIND       PRES   REMARKS
ALGONA *       SUNNY     75  54  46 CALM      29.89S
CLARION *      SUNNY     77  63  61 SW12      29.91R
ESTHERVILLE    SUNNY     73  55  53 NW5       29.88S
6HR MIN TEMP:  57; 6HR MAX TEMP:  73;

FORT DODGE *   SUNNY     75  61  60 S8        29.91R
MASON CITY     SUNNY     75  62  64 SW12      29.90S
6HR MIN TEMP:  59; 6HR MAX TEMP:  75;

FOREST CITY *  SUNNY     73  59  60 SW9       29.89R
WEBSTER CITY * SUNNY     77  63  61 S7        29.88R
IOWA FALLS *     N/A     77  63  61 SW7       29.92R
$$

IAZ007>011-017>019-026>030-037>042-050>054-066-261900-
   NORTHEAST IOWA

CITY           SKY/WX    TMP DP  RH WIND       PRES   REMARKS
CEDAR RAPIDS   PTSUNNY   77  64  64 S10       29.89S
6HR MIN TEMP:  62; 6HR MAX TEMP:  77;

CHARLES CITY * MOSUNNY   75  63  64 SW13      29.89R
CLINTON *      MOSUNNY   78  67  68 VRB6      29.89F HX  80
DECORAH *      MOSUNNY   75  61  60 VRB6G17   29.87F
DUBUQUE        SUNNY     79  58  48 SW9       29.88F HX  80
6HR MIN TEMP:  62; 6HR MAX TEMP:  79;

MONTICELLO *   SUNNY     81  57  44 SW8G16    29.88S HX  81
OELWEIN *      SUNNY     75  61  60 SW12      29.90R
WATERLOO       SUNNY     78  59  51 SW7       29.88S
6HR MIN TEMP:  60; 6HR MAX TEMP:  78;

$$

IAZ064-065-067-068-078-261900-
   EAST CENTRAL IOWA

CITY           SKY/WX    TMP DP  RH WIND       PRES   REMARKS
DAVENPORT      MOSUNNY   81  66  60 SW12      29.89F HX  83
6HR MIN TEMP:  62; 6HR MAX TEMP:  81;

IOWA CITY      MOSUNNY   79  63  57 S8        29.90S HX  80
6HR MIN TEMP:  63; 6HR MAX TEMP:  79;

MT. PLEASANT * CLOUDY    85  61  44 S12       29.90S HX  85
MUSCATINE *    MOSUNNY   86  64  48 W9        29.89R HX  87
QUAD CITIES    PTSUNNY   85  64  49 SW8G21    29.87F HX  86
6HR MIN TEMP:  66; 6HR MAX TEMP:  86; 6HR PCP: TRACE;

$$

IAZ062-063-075>077-085>089-095>099-261900-
   SOUTHEAST IOWA

CITY           SKY/WX    TMP DP  RH WIND       PRES   REMARKS
BURLINGTON     SUNNY     81  68  64 SW10      29.90S HX  84
6HR MIN TEMP:  65; 6HR MAX TEMP:  81;

FAIRFIELD *      N/A    N/A N/A N/A MISG        N/A
FORT MADISON * SUNNY     82  66  57 S6        29.91S HX  85
KEOKUK *       SUNNY     81  66  61 S7        29.90S HX  83
OSKALOOSA *      N/A     77  64  63 SW7       29.89F
OTTUMWA        CLOUDY    78  65  63 SW10      29.89S HX  80
6HR MIN TEMP:  64; 6HR MAX TEMP:  78;

WASHINGTON *   SUNNY     81  77  89 SW7G13    29.90F HX  88
$$

ABBREVIATIONS USED IN REMARKS
   TC - TEMPERATURES IN CELSIUS
  WCI - WIND CHILL INDEX
   HX - HEAT INDEX
  VSB - VISIBILITY
$$





USA.gov is the U.S. government's official web portal to all federal, state and local government web resources and services.